Windom, MN

1:27 AM CDT on September 24, 2017 (GMT -0500)
Windom Municipal

Weather History for KMWM - February, 2013

Change the Weather History Date:

Monday, February 25, 2013

  Actual Average Record
Temperature  
Mean Temperature 24 °F -  
Max Temperature 28 °F 33 °F 84 °F (1999)
Min Temperature 19 °F 13 °F -13 °F (1993)
Degree Days  
Heating Degree Days 42    
Moisture  
Dew Point 22 °F    
Average Humidity 95    
Maximum Humidity 100    
Minimum Humidity 80    
Precipitation  
Precipitation 0.00 in - - ()
Sea Level Pressure  
Sea Level Pressure 30.04 in    
Wind  
Wind Speed 1 mph (NNW)    
Max Wind Speed 7 mph    
Max Gust Speed -    
Visibility 3 miles    
Events Fog    
Averages and records for this station are not official NWS values.
T = Trace of Precipitation, MM = Missing Value Source: NWS Daily Summary

Daily Weather History Graph

Daily Weather History Graph

Search for Another Location

Airport or City:

Trip Planner

Search our weather history database for the weather conditions in past years. The results will help you decide how hot, cold, wet, or windy it might be!

Date:

Astronomy

Feb. 25, 2013 Rise Set
Actual Time 7:03 AM CST 6:04 PM CST
Civil Twilight 6:34 AM CST 6:33 PM CST
Nautical Twilight 6:01 AM CST 7:06 PM CST
Astronomical Twilight 5:27 AM CST 7:39 PM CST
Moon 6:20 PM CST (2/25) 6:32 AM CST (2/25)
Length of Visible Light 11h 58m
Length of Day
11h 00m
Full, 100% of the Moon is Illuminated
Feb 25
Full
Feb 25
Full
Mar 4
Last Quarter
Mar 11
New
Mar 19
First Quarter

Hourly Weather History & Observations

Time (CST) Temp. Windchill Dew Point Humidity Pressure Visibility Wind Dir Wind Speed Gust Speed Precip Events Conditions
12:13 AM 23.0 °F - 21.2 °F 93% 30.05 in 3.0 mi Calm Calm - N/A   Overcast
12:33 AM 23.0 °F - 21.2 °F 93% 30.06 in 4.0 mi Calm Calm - N/A   Overcast
12:52 AM 23.0 °F - 21.2 °F 93% 30.05 in 4.0 mi Calm Calm - N/A   Overcast
1:13 AM 23.0 °F - 21.2 °F 93% 30.05 in 4.0 mi Calm Calm - N/A   Overcast
1:32 AM 23.0 °F - 21.2 °F 93% 30.05 in 4.0 mi Calm Calm - N/A   Overcast
1:52 AM 23.0 °F - 21.2 °F 93% 30.05 in 4.0 mi Calm Calm - N/A   Overcast
2:13 AM 23.0 °F - 21.2 °F 93% 30.06 in 3.0 mi Calm Calm - N/A   Overcast
2:33 AM 23.0 °F - 21.2 °F 93% 30.05 in 3.0 mi Calm Calm - N/A   Overcast
2:52 AM 23.0 °F - 21.2 °F 93% 30.05 in 3.0 mi Calm Calm - N/A   Overcast
3:13 AM 23.0 °F - 21.2 °F 93% 30.04 in 3.0 mi Calm Calm - N/A   Overcast
3:33 AM 23.0 °F - 21.2 °F 93% 30.03 in 1.2 mi Calm Calm - N/A   Overcast
3:52 AM 23.0 °F 18.4 °F 23.0 °F 100% 30.03 in 0.2 mi WSW 3.5 mph - N/A Fog Light Freezing Fog
4:13 AM 23.0 °F 18.4 °F 21.2 °F 93% 30.03 in 0.2 mi West 3.5 mph - N/A Fog Light Freezing Fog
4:33 AM 23.0 °F 17.0 °F 21.2 °F 93% 30.03 in 0.5 mi WSW 4.6 mph - N/A Fog Light Freezing Fog
4:52 AM 23.0 °F - 21.2 °F 93% 30.04 in 0.2 mi Calm Calm - N/A Fog Light Freezing Fog
5:13 AM 21.2 °F 16.4 °F 21.2 °F 100% 30.04 in 0.2 mi West 3.5 mph - N/A Fog Light Freezing Fog
5:32 AM 21.2 °F 14.9 °F 19.4 °F 93% 30.05 in 0.2 mi West 4.6 mph - N/A Fog Light Freezing Fog
5:52 AM 19.4 °F - 19.4 °F 100% 30.06 in 0.2 mi Calm Calm - N/A Fog Light Freezing Fog
6:12 AM 19.4 °F 12.8 °F 19.4 °F 100% 30.05 in 0.2 mi West 4.6 mph - N/A Fog Light Freezing Fog
6:32 AM 19.4 °F 14.3 °F 19.4 °F 100% 30.06 in 0.2 mi West 3.5 mph - N/A Fog Light Freezing Fog
6:52 AM 19.4 °F - 19.4 °F 100% 30.06 in 0.2 mi Calm Calm - N/A Fog Light Freezing Fog
7:12 AM 19.4 °F - 19.4 °F 100% 30.05 in 0.2 mi Calm Calm - N/A Fog Light Freezing Fog
7:33 AM 19.4 °F - 17.6 °F 93% 30.08 in 0.2 mi Calm Calm - N/A Fog Light Freezing Fog
7:53 AM 19.4 °F - 17.6 °F 93% 30.08 in 0.2 mi Calm Calm - N/A Fog Light Freezing Fog
8:12 AM 19.4 °F - 17.6 °F 93% 30.07 in 0.2 mi Calm Calm - N/A Fog Light Freezing Fog
8:33 AM 19.4 °F - 17.6 °F 93% 30.08 in 0.2 mi Calm Calm - N/A Fog Light Freezing Fog
8:53 AM 19.4 °F - 17.6 °F 93% 30.07 in 0.5 mi Calm Calm - N/A Fog Light Freezing Fog
9:12 AM 19.4 °F - 17.6 °F 93% 30.06 in 0.2 mi Calm Calm - N/A Fog Light Freezing Fog
9:33 AM 21.2 °F - 19.4 °F 93% 30.06 in 0.2 mi Calm Calm - N/A Fog Light Freezing Fog
9:53 AM 21.2 °F - 21.2 °F 100% 30.06 in 0.2 mi Calm Calm - N/A Fog Light Freezing Fog
10:12 AM 23.0 °F - 21.2 °F 93% 30.07 in 0.2 mi Calm Calm - N/A Fog Light Freezing Fog
10:33 AM 24.8 °F - 23.0 °F 93% 30.07 in 1.2 mi Calm Calm - N/A   Overcast
10:53 AM 24.8 °F - 24.8 °F 100% 30.07 in 2.0 mi Calm Calm - N/A   Overcast
11:12 AM 24.8 °F - 24.8 °F 100% 30.07 in 2.0 mi Calm Calm - N/A   Overcast
11:33 AM 24.8 °F 16.9 °F 24.8 °F 100% 30.06 in 4.0 mi NNW 6.9 mph - N/A   Overcast
11:52 AM 24.8 °F - 24.8 °F 100% 30.07 in 3.0 mi Calm Calm - N/A   Overcast
12:12 PM 24.8 °F - 24.8 °F 100% 30.07 in 3.0 mi Calm Calm - N/A   Overcast
12:33 PM 24.8 °F 20.5 °F 24.8 °F 100% 30.07 in 4.0 mi NW 3.5 mph - N/A   Overcast
12:52 PM 24.8 °F - 24.8 °F 100% 30.06 in 4.0 mi Calm Calm - N/A   Overcast
1:13 PM 24.8 °F 19.1 °F 24.8 °F 100% 30.04 in 4.0 mi North 4.6 mph - N/A   Overcast
1:32 PM 26.6 °F - 24.8 °F 93% 30.04 in 5.0 mi Calm Calm - N/A   Overcast
1:52 PM 26.6 °F - 24.8 °F 93% 30.03 in 5.0 mi Calm Calm - N/A   Overcast
2:13 PM 26.6 °F - 24.8 °F 93% 30.03 in 7.0 mi Calm Calm - N/A   Overcast
2:32 PM 28.4 °F 21.2 °F 24.8 °F 86% 30.02 in 7.0 mi WNW 6.9 mph - N/A   Overcast
2:52 PM 26.6 °F 19.1 °F 24.8 °F 93% 30.02 in 7.0 mi NNW 6.9 mph - N/A   Overcast
3:13 PM 26.6 °F - 24.8 °F 93% 30.04 in 7.0 mi Calm Calm - N/A   Overcast
3:32 PM 26.6 °F - 23.0 °F 86% 30.03 in 7.0 mi Calm Calm - N/A   Overcast
3:52 PM 26.6 °F - 23.0 °F 86% 30.04 in 5.0 mi Calm Calm - N/A   Overcast
4:13 PM 26.6 °F - 23.0 °F 86% 30.03 in 4.0 mi Calm Calm - N/A   Overcast
4:32 PM 26.6 °F - 21.2 °F 80% 30.03 in 4.0 mi Calm Calm - N/A   Overcast
4:52 PM 24.8 °F - 21.2 °F 86% 30.03 in 5.0 mi Calm Calm - N/A   Overcast
8:12 PM 21.2 °F - 21.2 °F 100% 30.02 in 2.5 mi Calm Calm - N/A   Overcast
8:13 PM 21.2 °F - 21.2 °F 100% 30.02 in 2.5 mi Calm Calm - N/A   Overcast
8:33 PM 21.2 °F 14.9 °F 21.2 °F 100% 30.02 in 2.5 mi NE 4.6 mph - N/A   Overcast
8:52 PM 21.2 °F - 21.2 °F 100% 30.01 in 2.5 mi Calm Calm - N/A   Overcast
9:12 PM 21.2 °F 14.9 °F 21.2 °F 100% 30.01 in 2.5 mi NNE 4.6 mph - N/A   Overcast
9:52 PM 21.2 °F 14.9 °F 19.4 °F 93% 29.99 in 2.0 mi East 4.6 mph - N/A   Overcast
10:12 PM 21.2 °F - 19.4 °F 93% 29.99 in 1.8 mi Calm Calm - N/A   Overcast
10:32 PM 21.2 °F - 21.2 °F 100% 30.00 in 2.5 mi Calm Calm - N/A   Overcast
10:52 PM 21.2 °F 16.4 °F 21.2 °F 100% 29.99 in 3.0 mi ENE 3.5 mph - N/A   Overcast
11:13 PM 21.2 °F 12.6 °F 21.2 °F 100% 29.98 in 3.0 mi NE 6.9 mph - N/A   Overcast
11:32 PM 21.2 °F 13.6 °F 21.2 °F 100% 29.98 in 3.0 mi NE 5.8 mph - N/A   Overcast
11:52 PM 21.2 °F 12.6 °F 21.2 °F 100% 30.00 in 4.0 mi East 6.9 mph - N/A   Overcast